[[{"header":{"parameterUnit":"m.s-1","parameterCategory":1,"la1":30.2991,"la2":30.254,"lo1":-89.0895,"lo2":-89.0444,"dy":0.0017,"dx":0.0017,"nx":28,"ny":28,"refTime":"2025-01-16T09:00:00:Z","depth":0,"parameterNumber":2,"parameterNumberName":"U-component_of_WINDS"},"data":[0,0,0,0,0,0,0,0,0,0,0,0,0,0,0,0,0,0,0,0,0,0,0,0,0,0,0,0,0,0,0,0,0,0,0,0,0,0,0,0,0,0,0,0,0,0,0,0,0,0,0,0,0,0,0,0,0,0,0.506,0.5061,0,0.5113,0.5114,0.5114,0.513,0.513,0.5129,0.5129,0.5183,0.5185,0.5187,0,0,0,0,0,0,0,0,0,0,0,0,0,0.4974,0.4975,0.506,0.5061,0.5062,0.5113,0.5114,0.5115,0.513,0.513,0.5129,0.5129,0.5183,0.5185,0.5187,0,0,0,0,0,0,0,0,0,0,0,0,0,0.5017,0.4976,0.506,0.5076,0.5077,0.5113,0.5114,0.5115,0.513,0.513,0.5129,0.5129,0.5182,0.5185,0.5187,0.5211,0,0,0.5195,0.5196,0,0,0,0,0,0,0,0,0.5015,0.5021,0.5073,0.5075,0.5077,0.5115,0.5103,0.5147,0.513,0.511,0.5129,0.5129,0.5161,0.5165,0.5176,0.5214,0.5216,0.5195,0.5197,0.5198,0.5199,0,0,0,0,0,0,0,0.5012,0.5018,0.5081,0.5073,0.5076,0.508,0.5086,0.5112,0.5137,0.5112,0.5113,0.5119,0.5162,0.5173,0.5177,0.5217,0.5195,0.5197,0.5199,0.52,0.5278,0.5279,0,0,0,0,0,0,0.5006,0.5016,0.508,0.5083,0.5044,0.5082,0.5088,0.5103,0.5137,0.5142,0.5119,0.512,0.5169,0.5174,0.5179,0.521,0.5198,0.52,0.5202,0.5278,0.5278,0.5279,0,0,0,0,0,0,0.5004,0.5012,0.5077,0.505,0.5058,0.5084,0.51,0.5104,0.5116,0.5143,0.5147,0.5126,0.5169,0.5176,0.5203,0.5212,0.5201,0.5204,0.5277,0.5278,0.5279,0.5272,0,0,0,0,0,0,0.5002,0.5011,0.502,0.505,0.506,0.51,0.5101,0.5105,0.512,0.5121,0.5151,0.5155,0.5169,0.52,0.5206,0.5216,0.5206,0.5276,0.5277,0.5278,0.5271,0.5272,0.5273,0,0,0,0,0,0.4998,0.5016,0.502,0.5028,0.5072,0.5101,0.5107,0.5123,0.5121,0.513,0.5148,0.5154,0.521,0.5202,0.521,0.522,0.5276,0.5277,0.5278,0.5271,0.5272,0.5273,0,0,0,0,0,0,0.4987,0.502,0.5025,0.5053,0.5074,0.5103,0.5116,0.5123,0.5145,0.5145,0.5164,0.5171,0.5197,0.5212,0.5202,0.5246,0.5243,0.5246,0.5235,0.5237,0.5238,0.5234,0.5208,0,0,0,0,0,0.4987,0.5008,0.5036,0.5058,0.5068,0.509,0.5103,0.5114,0.5137,0.5145,0.5165,0.5187,0.5209,0.5224,0.5246,0.5274,0.5281,0.5285,0.5286,0.5286,0.5288,0.5305,0.5307,0.5283,0.5283,0.5283,0,0,0.4989,0.501,0.5021,0.5056,0.5073,0.5095,0.5098,0.512,0.5136,0.5149,0.5176,0.5191,0.5217,0.5245,0.5258,0.5258,0.5297,0.5288,0.5288,0.529,0.5306,0.5308,0.531,0.5284,0.5284,0.5283,0,0,0.5002,0.502,0.504,0.5058,0.5084,0.5099,0.5104,0.5132,0.5143,0.5171,0.5181,0.5201,0.5239,0.5257,0.5271,0.5292,0.5299,0.5299,0.5304,0.5319,0.5321,0.5323,0.5331,0.5333,0.5301,0.5301,0.5301,0,0.5001,0.5033,0.505,0.5072,0.5087,0.51,0.5121,0.5137,0.5169,0.5179,0.5178,0.5227,0.5245,0.5278,0.5283,0.5294,0.5301,0.5296,0.5319,0.5321,0.5323,0.5331,0.5334,0.5301,0.5301,0.5301,0.5301,0,0.503,0.5052,0.5065,0.5096,0.5113,0.5134,0.5155,0.5169,0.5179,0.5194,0.5222,0.5244,0.5272,0.528,0.5289,0.5314,0.5313,0.5315,0.5313,0.5325,0.5333,0.5336,0.5301,0.5301,0.5301,0.5301,0,0,0.5037,0.5078,0.5082,0.5097,0.5127,0.5145,0.5167,0.5194,0.5206,0.5228,0.5247,0.528,0.5282,0.5299,0.531,0.5324,0.5339,0.5324,0.5325,0.5327,0.5369,0.5367,0.537,0.5344,0.5345,0.5345,0.5366,0,0.5055,0.5094,0.511,0.5143,0.5164,0.5177,0.5196,0.5217,0.5232,0.5252,0.5268,0.5291,0.5293,0.5303,0.5317,0.5334,0.5348,0.5333,0.5362,0.5363,0.5356,0.5374,0.5372,0.539,0.5369,0.537,0.537,0,0.508,0.5103,0.5137,0.5166,0.5175,0.5192,0.5218,0.5237,0.5261,0.5271,0.5289,0.53,0.5324,0.5321,0.5354,0.5344,0.5357,0.5368,0.5369,0.5372,0.5367,0.5378,0.5397,0.54,0.5375,0.5375,0.5374,0,0.5082,0.5121,0.5147,0.5159,0.5193,0.5204,0.5219,0.5243,0.5258,0.5281,0.5291,0.5316,0.533,0.535,0.5367,0.5363,0.54,0.5397,0.5409,0.5408,0.5415,0.5415,0.5437,0.5424,0.5424,0.5424,0.5424,0,0.51,0.5121,0.5148,0.5164,0.5188,0.5206,0.5229,0.5245,0.5266,0.5286,0.5298,0.5316,0.5338,0.5359,0.5373,0.5399,0.5405,0.5414,0.5417,0.5413,0.5412,0.5422,0.5421,0.5424,0.5424,0.5424,0.5424,0,0.5106,0.5126,0.5155,0.5184,0.5192,0.5208,0.5234,0.525,0.5266,0.529,0.5297,0.5321,0.5346,0.5366,0.5399,0.5408,0.5436,0.5439,0.5427,0.5429,0.5439,0.5438,0.5469,0.5474,0.5457,0.5457,0.5457,0,0.5116,0.5133,0.5164,0.5178,0.5193,0.5215,0.5231,0.525,0.5265,0.5295,0.5307,0.5334,0.5356,0.5395,0.5416,0.5441,0.5446,0.5455,0.545,0.5445,0.5446,0.5445,0.5447,0.5456,0.5456,0.5456,0.5456,0,0.5133,0.5141,0.5163,0.5189,0.5207,0.5228,0.525,0.526,0.5283,0.5301,0.5327,0.5344,0.5378,0.5403,0.5431,0.5446,0.5455,0.5457,0.5461,0.5457,0.5449,0.5454,0.5429,0.5456,0.5456,0.5456,0.5456,0.5456,0.5141,0.5156,0.5181,0.5205,0.5224,0.5243,0.526,0.5278,0.53,0.5329,0.5339,0.5366,0.539,0.5428,0.5444,0.5465,0.5466,0.5471,0.5473,0.5474,0.5473,0.5446,0.547,0.547,0.547,0.547,0.547,0,0.5158,0.5175,0.5197,0.5226,0.5246,0.5252,0.5276,0.5292,0.5316,0.5338,0.5359,0.5389,0.5415,0.5438,0.5464,0.5477,0.5482,0.5483,0.5483,0.5486,0.5472,0.5466,0.5479,0.5479,0.5479,0.5479,0.5479,0.5479,0.5169,0.5195,0.5207,0.5243,0.5259,0.5286,0.5299,0.5317,0.5335,0.5368,0.539,0.5404,0.5427,0.5455,0.5479,0.5485,0.5494,0.5495,0.5502,0.5488,0.5487,0.5486,0.548,0.5497,0.5497,0.5515,0.5515,0.5515]},{"header":{"parameterUnit":"m.s-1","parameterCategory":1,"la1":30.2991,"la2":30.254,"lo1":-89.0895,"lo2":-89.0444,"dy":0.0017,"dx":0.0017,"nx":28,"ny":28,"refTime":"2025-01-16T09:00:00:Z","depth":0,"parameterNumber":3,"parameterNumberName":"V-component_of_WINDS"},"data":[0,0,0,0,0,0,0,0,0,0,0,0,0,0,0,0,0,0,0,0,0,0,0,0,0,0,0,0,0,0,0,0,0,0,0,0,0,0,0,0,0,0,0,0,0,0,0,0,0,0,0,0,0,0,0,0,0,0,-2.549,-2.549,0,-2.5463,-2.5463,-2.5463,-2.5449,-2.5449,-2.5449,-2.5449,-2.5419,-2.5418,-2.5417,0,0,0,0,0,0,0,0,0,0,0,0,0,-2.5528,-2.5527,-2.549,-2.549,-2.5489,-2.5464,-2.5463,-2.5463,-2.5449,-2.5449,-2.5449,-2.5449,-2.5419,-2.5418,-2.5417,0,0,0,0,0,0,0,0,0,0,0,0,0,-2.5507,-2.5527,-2.549,-2.5479,-2.5478,-2.5464,-2.5463,-2.5463,-2.5449,-2.5449,-2.5449,-2.5449,-2.5419,-2.5418,-2.5417,-2.541,0,0,-2.5414,-2.5413,0,0,0,0,0,0,0,0,-2.5509,-2.5506,-2.5481,-2.548,-2.5479,-2.546,-2.5466,-2.5445,-2.5449,-2.546,-2.5449,-2.5449,-2.5432,-2.543,-2.5425,-2.5409,-2.5408,-2.5413,-2.5413,-2.5412,-2.5412,0,0,0,0,0,0,0,-2.551,-2.5507,-2.5479,-2.5481,-2.5479,-2.5476,-2.5473,-2.5462,-2.5446,-2.5459,-2.5458,-2.5455,-2.5431,-2.5426,-2.5424,-2.5407,-2.5413,-2.5412,-2.5412,-2.5411,-2.5389,-2.5389,0,0,0,0,0,0,-2.5513,-2.5508,-2.548,-2.5479,-2.5494,-2.5475,-2.5472,-2.5466,-2.5446,-2.5444,-2.5455,-2.5454,-2.5428,-2.5426,-2.5423,-2.5417,-2.5412,-2.5411,-2.541,-2.5388,-2.5389,-2.5389,0,0,0,0,0,0,-2.5514,-2.5511,-2.5481,-2.5493,-2.5489,-2.5474,-2.5468,-2.5465,-2.546,-2.5444,-2.5441,-2.5453,-2.5428,-2.5425,-2.5415,-2.5415,-2.5411,-2.541,-2.5388,-2.5389,-2.5389,-2.5402,0,0,0,0,0,0,-2.5515,-2.5511,-2.5508,-2.5493,-2.5489,-2.5473,-2.5468,-2.5465,-2.5458,-2.5457,-2.544,-2.5438,-2.5428,-2.5417,-2.5414,-2.5414,-2.5409,-2.5388,-2.5388,-2.5389,-2.5402,-2.5403,-2.5404,0,0,0,0,0,-2.5517,-2.5512,-2.5508,-2.5505,-2.5485,-2.5473,-2.5471,-2.546,-2.5458,-2.5456,-2.5446,-2.5438,-2.5416,-2.5416,-2.5412,-2.5412,-2.5388,-2.5388,-2.5389,-2.5401,-2.5403,-2.5404,0,0,0,0,0,0,-2.5525,-2.5509,-2.5505,-2.5495,-2.5486,-2.5471,-2.5467,-2.5461,-2.5452,-2.5451,-2.5438,-2.5434,-2.5426,-2.5418,-2.5418,-2.5406,-2.5401,-2.5401,-2.5412,-2.5413,-2.5414,-2.5417,-2.5408,0,0,0,0,0,-2.5526,-2.5519,-2.5505,-2.5497,-2.5493,-2.5481,-2.5476,-2.5469,-2.5458,-2.5454,-2.5443,-2.5433,-2.5424,-2.5418,-2.5408,-2.54,-2.5398,-2.5399,-2.54,-2.5401,-2.5401,-2.5399,-2.54,-2.5389,-2.5389,-2.5389,0,0,-2.5527,-2.5518,-2.5513,-2.5499,-2.5491,-2.5484,-2.5478,-2.547,-2.5465,-2.5452,-2.5443,-2.5436,-2.5423,-2.5415,-2.5411,-2.5408,-2.5404,-2.5401,-2.5402,-2.5401,-2.54,-2.5401,-2.5402,-2.539,-2.539,-2.539,0,0,-2.5526,-2.5518,-2.5512,-2.5506,-2.5495,-2.5487,-2.5486,-2.5473,-2.5468,-2.5459,-2.5451,-2.5445,-2.5428,-2.5421,-2.5415,-2.5416,-2.541,-2.5413,-2.5419,-2.5418,-2.5419,-2.542,-2.5422,-2.5423,-2.5413,-2.5413,-2.5413,0,-2.5529,-2.5519,-2.551,-2.5504,-2.5499,-2.549,-2.5485,-2.5478,-2.5464,-2.5461,-2.5458,-2.5441,-2.5431,-2.5423,-2.5424,-2.5419,-2.5418,-2.5415,-2.542,-2.542,-2.5421,-2.5423,-2.5424,-2.5414,-2.5414,-2.5414,-2.5414,0,-2.5524,-2.5518,-2.5514,-2.5504,-2.5498,-2.5493,-2.5484,-2.5479,-2.5474,-2.5467,-2.546,-2.5449,-2.5439,-2.5436,-2.5429,-2.5428,-2.5427,-2.5422,-2.5417,-2.5423,-2.5425,-2.5426,-2.5415,-2.5415,-2.5415,-2.5414,0,0,-2.5525,-2.5513,-2.5512,-2.5509,-2.5498,-2.5493,-2.5488,-2.548,-2.5478,-2.5469,-2.5466,-2.5454,-2.5451,-2.5444,-2.5437,-2.5436,-2.5441,-2.5431,-2.5431,-2.5435,-2.5442,-2.5447,-2.5448,-2.5437,-2.5437,-2.5437,-2.5444,0,-2.5524,-2.5516,-2.551,-2.5504,-2.55,-2.5493,-2.5489,-2.5483,-2.5477,-2.5472,-2.5465,-2.5459,-2.5453,-2.545,-2.5448,-2.5441,-2.5443,-2.544,-2.5435,-2.5435,-2.5439,-2.5449,-2.5453,-2.546,-2.5445,-2.5445,-2.5445,0,-2.5521,-2.5517,-2.5511,-2.5505,-2.5503,-2.5499,-2.5494,-2.5489,-2.5482,-2.5478,-2.5473,-2.5467,-2.5463,-2.5458,-2.5453,-2.5452,-2.5449,-2.5446,-2.5446,-2.5445,-2.5441,-2.5451,-2.5462,-2.5464,-2.5446,-2.5446,-2.5446,0,-2.5526,-2.5518,-2.5514,-2.5512,-2.5503,-2.5502,-2.5498,-2.5491,-2.5488,-2.5483,-2.5481,-2.5475,-2.5471,-2.5467,-2.546,-2.5457,-2.5456,-2.545,-2.5454,-2.5455,-2.5454,-2.5455,-2.5467,-2.5451,-2.5451,-2.5451,-2.5451,0,-2.5526,-2.5524,-2.5517,-2.5515,-2.5513,-2.5506,-2.5504,-2.55,-2.5495,-2.5493,-2.5485,-2.5483,-2.5473,-2.547,-2.5464,-2.5463,-2.5461,-2.5458,-2.5457,-2.546,-2.546,-2.5458,-2.5458,-2.5451,-2.5451,-2.5451,-2.5451,0,-2.5531,-2.5526,-2.5522,-2.5516,-2.5515,-2.5514,-2.5508,-2.5507,-2.5502,-2.55,-2.5499,-2.5491,-2.5488,-2.548,-2.5474,-2.547,-2.5471,-2.5467,-2.5474,-2.5473,-2.5478,-2.5478,-2.549,-2.5493,-2.5474,-2.5474,-2.5474,0,-2.5531,-2.553,-2.5525,-2.5524,-2.5522,-2.5519,-2.5517,-2.5511,-2.551,-2.5504,-2.5504,-2.55,-2.5497,-2.5492,-2.5486,-2.5482,-2.548,-2.5484,-2.5479,-2.5483,-2.5482,-2.5483,-2.5484,-2.5486,-2.5486,-2.5486,-2.5486,0,-2.5535,-2.5533,-2.5531,-2.553,-2.5528,-2.5526,-2.5523,-2.5522,-2.5516,-2.5514,-2.5512,-2.551,-2.5506,-2.5503,-2.5499,-2.5495,-2.549,-2.5488,-2.5489,-2.5492,-2.5497,-2.5497,-2.5479,-2.5488,-2.5488,-2.5488,-2.5488,-2.5487,-2.5538,-2.5538,-2.5536,-2.5535,-2.5533,-2.5532,-2.5532,-2.5529,-2.5527,-2.5524,-2.5521,-2.552,-2.5516,-2.5511,-2.5508,-2.5507,-2.5504,-2.5505,-2.5505,-2.5506,-2.5508,-2.5497,-2.5506,-2.5506,-2.5506,-2.5506,-2.5506,0,-2.5543,-2.5542,-2.5542,-2.554,-2.554,-2.5537,-2.5535,-2.5535,-2.5535,-2.5532,-2.5531,-2.553,-2.5528,-2.5524,-2.5522,-2.5522,-2.552,-2.5522,-2.5523,-2.5523,-2.551,-2.551,-2.5524,-2.5524,-2.5524,-2.5524,-2.5524,-2.5524,-2.5545,-2.5546,-2.5546,-2.5547,-2.5545,-2.5546,-2.5545,-2.5545,-2.5544,-2.5544,-2.5543,-2.5541,-2.5538,-2.5537,-2.5536,-2.5535,-2.5535,-2.5538,-2.5536,-2.5525,-2.5523,-2.5521,-2.5522,-2.5538,-2.5538,-2.5549,-2.5549,-2.555]}]]